This demonstration page uses our WeatherBlox Daily Observations layout. Learn more.

Left ArrowRight Arrow

Hourly Observations for February 25, 2016

Temp ( °F °C ) Dew Point ( °F °C ) Humidity (%) Winds ( mph kmh ) Pressure ( in mb ) Visibility ( mi km ) Precip ( " mm )
12:01 am 00:01 Cloudy with Heavy Rain 61 16 57 14 88 88 SSW 14 22 29.32 993 1 1 0.23 5.84
12:08 am 00:08 Cloudy with Heavy Rain 61 16 57 14 88 88 S 12 19 29.32 993 1 1 0.00 0.00
12:16 am 00:16 Cloudy with Rain 61 16 57 14 88 88 SE 12 19 29.32 993 5 8 0.00 0.00
12:51 am 00:51 Cloudy with Light Rain 61 16.1 58 14.4 90 90 S 15 24 29.30 992 10 16 0.26 6.60
1:19 am 01:19 Cloudy with Rain 61 16 57 14 88 88 S 15 24 29.29 992 10 16 0.01 0.25
1:51 am 01:51 Cloudy 60 15.6 57 13.9 90 90 S 9 15 29.26 991 10 16 0.02 0.51
2:51 am 02:51 Mostly Clear 60 15.6 56 13.3 86 86 S 10 17 29.25 990 10 16 0.00 0.00
3:51 am 03:51 Clear 58 14.4 54 12.2 87 87 S 14 22 29.23 990 10 16 0.00 0.00
4:51 am 04:51 Clear 56 13.3 53 11.7 90 90 S 14 22 29.22 990 10 16 0.00 0.00
5:51 am 05:51 Clear 54 12.2 49 9.4 83 83 S 10 17 29.21 989 10 16 0.00 0.00
6:51 am 06:51 Sunny 54 12.2 44 6.7 69 69 SSW 12 19 29.21 989 10 16 0.00 0.00
7:51 am 07:51 Cloudy 54 12.2 45 7.2 72 72 S 8 13 29.22 989 10 16 0.00 0.00
8:51 am 08:51 Cloudy 53 11.7 43 6.1 69 69 SSW 13 20 29.21 989 10 16 0.00 0.00
9:51 am 09:51 Cloudy 52 11.1 43 6.1 72 72 SW 23 37 29.21 989 10 16 0.00 0.00
10:03 am 10:03 Cloudy 52 11 45 7 77 77 WSW 16 26 29.23 990 10 16 0.00 0.00
10:42 am 10:42 Cloudy with Drizzle 50 10 43 6 76 76 WSW 15 24 29.23 990 10 16 0.00 0.00
10:51 am 10:51 Cloudy 50 10 40 4.4 68 68 W 21 33 29.24 990 10 16 0.00 0.03
11:08 am 11:08 Cloudy 50 10 41 5 71 71 W 15 24 29.26 991 10 16 0.00 0.00
11:51 am 11:51 Cloudy 49 9.4 41 5 74 74 WSW 15 24 29.26 991 10 16 0.00 0.00
12:35 pm 12:35 Cloudy 48 9 37 3 66 66 W 16 26 29.26 991 10 16 0.00 0.00
12:51 pm 12:51 Cloudy 48 8.9 37 2.8 66 66 W 15 24 29.27 991 10 16 0.00 0.00
1:51 pm 13:51 Cloudy 48 8.9 34 1.1 58 58 WSW 17 28 29.26 991 10 16 0.00 0.00
2:51 pm 14:51 Cloudy 47 8.3 32 0 56 56 WSW 18 30 29.30 992 10 16 0.00 0.00
3:51 pm 15:51 Cloudy with Light Rain 45 7.2 31 -0.6 58 58 WSW 18 30 29.33 993 10 16 0.00 0.03
4:51 pm 16:51 Cloudy 40 4.4 35 1.7 83 83 WSW 18 30 29.37 995 10 16 0.00 0.03
5:51 pm 17:51 Cloudy with Light Rain 41 5 33 0.6 73 73 WSW 13 20 29.39 995 10 16 0.00 0.03
6:51 pm 18:51 Cloudy 40 4.4 31 -0.6 70 70 WSW 16 26 29.42 996 10 16 0.00 0.03
7:51 pm 19:51 Cloudy 40 4.4 31 -0.6 70 70 WSW 14 22 29.44 997 10 16 0.00 0.00
8:51 pm 20:51 Cloudy 40 4.4 31 -0.6 70 70 WSW 16 26 29.45 997 10 16 0.00 0.00
9:51 pm 21:51 Cloudy 39 3.9 31 -0.6 73 73 WSW 18 30 29.49 999 10 16 0.00 0.00
10:51 pm 22:51 Cloudy 38 3.3 30 -1.1 73 73 W 10 17 29.52 1000 10 16 0.00 0.03
11:51 pm 23:51 Cloudy 38 3.3 25 -3.9 60 60 WNW 12 19 29.54 1001 10 16 0.00 0.00

Powered by Vaisala Xweather